EW7397 Weather Reports


Display with metric or nautical units.
time (UTC)temp
F
wind
direction
speed
MPH
gust
MPH
rain 1hr
in
rain 24hr
in
rain mn
in
humidity
%
barometer
mb
20260506130005 63 280 0.0 2.0 0.00 0.02 0.02 77 1011.4
20260506125505 63 274 0.0 1.0 0.00 0.02 0.02 77 1011.5
20260506125003 63 274 0.0 1.0 0.00 0.02 0.02 79 1011.6
20260506124505 63 274 1.0 2.0 0.00 0.02 0.02 80 1011.5
20260506124003 63 274 1.0 3.0 0.00 0.02 0.02 78 1011.7
20260506123503 63 274 1.0 3.0 0.00 0.02 0.02 79 1011.8
20260506123005 63 274 1.0 3.0 0.00 0.02 0.02 78 1011.7
20260506122503 63 264 1.0 3.0 0.00 0.02 0.02 77 1011.7
20260506122003 62 248 1.0 4.0 0.00 0.02 0.02 77 1011.8
20260506121505 62 199 1.0 4.0 0.00 0.02 0.02 79 1011.7
20260506121003 62 203 1.0 3.0 0.00 0.02 0.02 80 1011.8
20260506120503 62 284 1.0 3.0 0.00 0.02 0.02 81 1011.8
20260506120005 62 275 1.0 3.0 0.00 0.02 0.02 80 1011.8
20260506115712 62 270 2.0 3.0 0.00 0.02 0.02 80 1011.8
20260506115210 62 269 2.0 4.0 0.00 0.02 0.02 79 1011.9
20260506114505 62 258 2.0 6.0 0.00 0.02 0.02 80 1012.1
20260506114003 62 258 2.0 4.0 0.00 0.02 0.02 80 1012.1
20260506113505 62 270 1.0 4.0 0.00 0.02 0.02 80 1012.0
20260506113003 62 282 1.0 4.0 0.00 0.02 0.02 81 1012.2
20260506112503 62 335 1.0 3.0 0.02 0.02 0.02 82 1012.3
20260506112005 61 309 1.0 3.0 0.02 0.02 0.02 82 1012.3
20260506111503 61 259 2.0 3.0 0.02 0.02 0.02 83 1012.3
20260506111211 62 257 2.0 3.0 0.02 0.02 0.02 81 1012.4
20260506110710 62 267 3.0 3.0 0.02 0.02 0.02 82 1012.4
20260506110211 62 269 3.0 7.0 0.02 0.02 0.02 80 1012.3
20260506105505 62 274 3.0 8.0 0.02 0.02 0.02 79 1012.5
20260506105004 62 278 2.0 8.0 0.02 0.02 0.02 79 1012.6
20260506104712 63 285 2.0 7.0 0.02 0.02 0.02 79 1012.6
20260506104210 63 308 2.0 4.0 0.02 0.02 0.02 80 1012.6
20260506103712 63 297 2.0 4.0 0.02 0.02 0.02 79 1012.5
20260506103003 63 295 2.0 4.0 0.02 0.02 0.02 78 1012.7
20260506102505 64 289 2.0 5.0 0.01 0.01 0.02 77 1012.7
20260506102003 64 262 2.0 5.0 0.00 0.00 0.00 76 1012.8
20260506101503 64 261 3.0 7.0 0.00 0.00 0.00 75 1012.9
20260506101005 64 273 4.0 8.0 0.00 0.00 0.00 74 1012.7
20260506100503 64 268 5.0 9.0 0.00 0.00 0.00 73 1012.7
20260506100005 64 271 5.0 13.0 0.00 0.00 0.00 72 1012.6
20260506095503 64 272 5.0 13.0 0.00 0.00 0.00 71 1012.5
20260506095212 65 266 5.0 13.0 0.00 0.00 0.00 71 1012.6
20260506094503 65 253 4.0 10.0 0.00 0.00 0.00 71 1012.7
20260506094005 65 249 3.0 10.0 0.00 0.00 0.00 71 1012.6
20260506093503 65 238 3.0 9.0 0.00 0.00 0.00 71 1012.6
20260506093003 65 249 3.0 9.0 0.00 0.00 0.00 71 1012.7
20260506092505 66 257 4.0 9.0 0.00 0.00 0.00 71 1012.5
20260506092003 66 270 3.0 9.0 0.00 0.00 0.00 71 1012.4
20260506091710 66 276 3.0 9.0 0.00 0.00 0.00 71 1012.5
20260506091212 66 266 3.0 9.0 0.00 0.00 0.00 71 1012.5
20260506090503 67 225 2.0 6.0 0.00 0.00 0.00 73 1012.2
20260506090006 67 227 2.0 7.0 0.00 0.00 0.00 72 1012.1
20260506085503 67 213 3.0 7.0 0.00 0.00 0.00 73 1012.0
20260506085005 67 227 3.0 8.0 0.00 0.00 0.00 72 1012.0
20260506084503 66 230 2.0 10.0 0.00 0.00 0.00 73 1012.0
20260506084005 66 246 2.0 10.0 0.00 0.00 0.00 72 1011.9
20260506083503 66 272 3.0 6.0 0.00 0.00 0.00 71 1011.8
20260506083005 66 248 3.0 6.0 0.00 0.00 0.00 72 1011.8
20260506082710 66 235 3.0 6.0 0.00 0.00 0.00 71 1011.6
20260506082003 66 290 3.0 10.0 0.00 0.00 0.00 74 1011.6
20260506081712 66 324 3.0 10.0 0.00 0.00 0.00 72 1011.6
20260506081003 65 269 4.0 6.0 0.00 0.00 0.00 73 1011.6
20260506080505 65 274 4.0 9.0 0.00 0.00 0.00 74 1011.8
20260506073505 63 210 2.0 6.0 0.00 0.00 0.00 77 1012.0
20260506073003 63 33 2.0 5.0 0.00 0.00 0.00 77 1012.1
20260506072503 62 27 2.0 5.0 0.00 0.00 0.00 76 1012.1
20260506072005 62 36 2.0 4.0 0.00 0.00 0.00 77 1012.0
20260506071503 62 40 2.0 5.0 0.00 0.00 0.00 77 1012.3
20260506071005 61 38 2.0 5.0 0.00 0.00 0.00 77 1012.3
20260506070710 61 38 1.0 5.0 0.00 0.00 0.00 78 1012.3
20260506062503 57 42 0.0 1.0 0.00 0.00 0.00 84 1012.5
20260506062003 57 0 0.0 0.0 0.00 0.00 0.00 85 1012.4
20260506061712 57 0 0.0 0.0 0.00 0.00 0.00 85 1012.4
20260506061212 56 0 0.0 0.0 0.00 0.00 0.00 85 1012.4
20260506060503 56 42 0.0 1.0 0.00 0.00 0.00 85 1012.4
20260506060215 56 42 0.0 1.0 0.00 0.00 0.00 85 1012.4
20260506051005 54 317 1.0 2.0 0.00 0.00 0.00 87 1012.3
20260506050710 54 313 1.0 2.0 0.00 0.00 0.00 87 1012.3
20260506045003 54 305 0.0 1.0 0.00 0.00 0.00 87 1012.2
20260506044505 54 0 0.0 0.0 0.00 0.00 0.00 87 1012.1
20260506044003 54 0 0.0 0.0 0.00 0.00 0.00 88 1012.1
20260506043503 54 307 0.0 1.0 0.00 0.00 0.00 88 1012.2
20260506043005 54 307 0.0 1.0 0.00 0.00 0.00 88 1012.3
20260506042503 54 0 0.0 0.0 0.00 0.00 0.00 88 1012.2
20260506042212 53 0 0.0 0.0 0.00 0.00 0.00 88 1012.2
20260506041503 53 307 0.0 1.0 0.00 0.00 0.00 88 1012.2
20260506041005 53 307 0.0 1.0 0.00 0.00 0.00 88 1012.2
20260506040504 53 0 0.0 0.0 0.00 0.00 0.00 87 1012.2
20260506040006 53 0 0.0 0.0 0.00 0.00 0.00 87 1012.2
20260506035503 53 0 0.0 0.0 0.00 0.00 0.00 87 1012.1
20260506035005 53 308 0.0 2.0 0.00 0.00 0.00 88 1012.2
20260506034503 53 308 0.0 2.0 0.00 0.00 0.00 87 1012.2
20260506034003 53 308 0.0 1.0 0.00 0.00 0.00 88 1012.1
20260506033505 53 308 0.0 1.0 0.00 0.00 0.00 87 1012.1
20260506033004 53 0 0.0 0.0 0.00 0.00 0.00 87 1012.2
20260506032505 53 308 0.0 1.0 0.00 0.00 0.00 87 1012.2
20260506032003 53 308 0.0 2.0 0.00 0.00 0.00 87 1012.3
20260506031712 53 308 0.0 2.0 0.00 0.00 0.00 88 1012.3
20260506031003 53 308 0.0 1.0 0.00 0.00 0.00 87 1012.4
20260506030503 53 308 0.0 1.0 0.00 0.00 0.00 87 1012.4
20260506030006 53 308 0.0 1.0 0.00 0.00 0.00 87 1012.4
20260506025503 53 308 0.0 1.0 0.00 0.00 0.00 86 1012.5
20260506025004 53 307 0.0 1.0 0.00 0.00 0.00 87 1012.4
20260506024505 53 307 0.0 1.0 0.00 0.00 0.00 86 1012.3
20260506024211 53 307 1.0 2.0 0.00 0.00 0.00 87 1012.4
20260506023503 53 307 0.0 2.0 0.00 0.00 0.00 87 1012.4
20260506023005 53 307 0.0 2.0 0.00 0.00 0.00 86 1012.6
20260506022710 53 307 0.0 2.0 0.00 0.00 0.00 86 1012.6
20260506022005 53 308 0.0 1.0 0.00 0.00 0.00 86 1012.5
20260506021503 53 308 0.0 1.0 0.00 0.00 0.00 86 1012.6
20260506021003 53 308 0.0 1.0 0.00 0.00 0.00 86 1012.5
20260506020505 53 308 0.0 1.0 0.00 0.00 0.00 86 1012.4
20260506020004 53 308 0.0 1.0 0.00 0.00 0.00 86 1012.4
20260506015505 53 308 0.0 1.0 0.00 0.00 0.00 86 1012.5
20260506015003 53 308 1.0 1.0 0.00 0.00 0.00 86 1012.4
20260506014503 53 308 1.0 2.0 0.00 0.00 0.00 86 1012.4
20260506014005 53 307 1.0 2.0 0.00 0.00 0.00 86 1012.2
20260506013503 53 306 1.0 2.0 0.00 0.00 0.00 86 1012.4
20260506013005 53 306 0.0 2.0 0.00 0.00 0.00 86 1012.3
20260506012505 53 306 0.0 1.0 0.00 0.00 0.00 85 1012.3
20260506012003 53 306 0.0 1.0 0.00 0.00 0.00 87 1012.3
20260506011505 53 306 0.0 2.0 0.00 0.00 0.00 86 1012.4
20260506011003 52 306 0.0 2.0 0.00 0.00 0.00 86 1012.4
20260506010506 52 0 0.0 0.0 0.00 0.00 0.00 87 1012.4
20260506010004 52 0 0.0 0.0 0.00 0.00 0.00 85 1012.4
20260506005505 52 0 0.0 0.0 0.00 0.00 0.00 86 1012.4
20260506005003 52 0 0.0 0.0 0.00 0.00 0.00 87 1012.5
20260506004711 52 306 1.0 2.0 0.00 0.00 0.00 87 1012.4
20260506004005 52 305 0.0 2.0 0.00 0.00 0.00 86 1012.4
20260506003710 52 305 0.0 2.0 0.00 0.00 0.00 87 1012.4
20260506003003 51 0 0.0 0.0 0.00 0.00 0.00 85 1012.4
20260506002505 52 0 0.0 0.0 0.00 0.00 0.00 85 1012.3
20260506002003 51 0 0.0 0.0 0.00 0.00 0.00 85 1012.3
20260506001505 51 0 0.0 0.0 0.00 0.00 0.00 84 1012.4
20260506001003 51 304 0.0 2.0 0.00 0.00 0.00 84 1012.4
20260506000503 51 304 0.0 2.0 0.00 0.00 0.00 86 1012.4
20260506000006 51 304 0.0 1.0 0.00 0.00 0.00 84 1012.5
20260505235503 52 304 0.0 1.0 0.00 0.00 0.00 83 1012.5
20260505235003 52 304 0.0 1.0 0.00 0.00 0.00 83 1012.5
20260505234505 52 304 1.0 2.0 0.00 0.00 0.00 82 1012.6
20260505234003 52 304 0.0 3.0 0.00 0.00 0.00 83 1012.6
20260505233505 52 304 0.0 3.0 0.00 0.00 0.00 82 1012.8
20260505233003 53 304 0.0 2.0 0.00 0.00 0.00 82 1012.6
20260505232505 53 304 0.0 2.0 0.00 0.00 0.00 81 1012.7
20260505232211 53 304 0.0 2.0 0.00 0.00 0.00 81 1012.8
20260505231505 53 304 1.0 2.0 0.00 0.00 0.00 81 1012.8
20260505231003 54 293 1.0 3.0 0.00 0.00 0.00 80 1012.8
20260505230503 54 275 0.0 3.0 0.00 0.00 0.00 80 1012.7
20260505230213 54 261 0.0 3.0 0.00 0.00 0.00 80 1012.8
20260505225504 54 276 1.0 3.0 0.00 0.00 0.00 79 1012.8
20260505225003 55 280 1.0 3.0 0.00 0.00 0.00 78 1012.8
20260505224505 55 265 0.0 3.0 0.00 0.00 0.00 79 1012.8
20260505224003 56 196 0.0 2.0 0.00 0.00 0.00 77 1012.8
20260505223505 56 200 0.0 3.0 0.00 0.00 0.00 77 1012.7
20260505223003 56 212 0.0 3.0 0.00 0.00 0.00 77 1012.9
20260505222505 56 5 1.0 2.0 0.00 0.00 0.00 77 1012.8
20260505222003 57 354 1.0 2.0 0.00 0.00 0.00 77 1012.8
20260505221505 57 288 1.0 2.0 0.00 0.00 0.00 77 1012.8
20260505221003 57 256 1.0 3.0 0.00 0.00 0.00 76 1012.7
20260505220503 57 262 1.0 3.0 0.00 0.00 0.00 77 1012.7
20260505220341 57 265 1.0 3.0 0.00 0.00 0.00 76 1012.7
20260505215503 57 286 2.0 6.0 0.00 0.00 0.00 76 1012.8
20260505215003 57 310 2.0 6.0 0.00 0.00 0.00 76 1012.8
20260505214503 58 320 2.0 5.0 0.00 0.00 0.00 76 1012.8
20260505214005 58 324 1.0 5.0 0.00 0.00 0.00 76 1012.9
20260505213503 58 347 1.0 4.0 0.00 0.00 0.00 76 1012.9
20260505213003 58 321 1.0 3.0 0.00 0.00 0.00 76 1012.9
20260505212505 58 297 1.0 6.0 0.00 0.00 0.00 75 1012.9
20260505212003 58 284 0.0 6.0 0.00 0.00 0.00 75 1013.0
20260505211505 58 223 0.0 2.0 0.00 0.00 0.00 75 1013.2
20260505211003 59 222 0.0 2.0 0.00 0.00 0.00 74 1013.1
20260505210710 59 222 0.0 2.0 0.00 0.00 0.00 75 1013.1
20260505210006 59 249 2.0 3.0 0.00 0.00 0.00 74 1013.2
20260505205711 59 256 2.0 7.0 0.00 0.00 0.00 74 1013.1
20260505205003 59 235 1.0 7.0 0.00 0.00 0.00 74 1013.1
20260505204507 59 147 2.0 3.0 0.00 0.00 0.00 75 1012.9
20260505204210 59 190 3.0 4.0 0.00 0.00 0.00 74 1012.9
20260505203712 60 206 3.0 7.0 0.00 0.00 0.00 73 1013.0
20260505203003 60 202 3.0 7.0 0.00 0.00 0.00 74 1012.9
20260505202503 60 211 4.0 9.0 0.00 0.00 0.00 74 1012.9
20260505202005 60 223 4.0 9.0 0.00 0.00 0.00 74 1013.0
20260505201504 60 216 4.0 8.0 0.00 0.00 0.00 74 1012.9
20260505201005 60 206 4.0 8.0 0.00 0.00 0.00 73 1012.9
20260505200503 60 208 4.0 7.0 0.00 0.00 0.00 73 1012.9
20260505200004 60 201 3.0 9.0 0.00 0.00 0.00 73 1013.0
20260505195505 60 207 2.0 11.0 0.00 0.00 0.00 73 1013.0
20260505195003 60 238 2.0 11.0 0.00 0.00 0.00 73 1013.1
20260505194505 61 253 3.0 6.0 0.00 0.00 0.00 73 1013.0
20260505194003 61 244 3.0 9.0 0.00 0.00 0.00 72 1012.9
20260505193503 61 238 3.0 9.0 0.00 0.00 0.00 72 1012.9
20260505193005 61 239 2.0 8.0 0.00 0.00 0.00 72 1012.9
20260505192505 61 226 2.0 5.0 0.00 0.00 0.00 72 1012.9
20260505192005 61 207 1.0 5.0 0.00 0.00 0.00 72 1012.9
20260505191503 61 198 1.0 4.0 0.00 0.00 0.00 70 1012.8
20260505191003 61 211 1.0 4.0 0.00 0.00 0.00 70 1012.8
20260505190503 61 213 1.0 2.0 0.00 0.00 0.00 70 1012.8
20260505190006 61 197 2.0 4.0 0.00 0.00 0.00 69 1012.7
20260505185503 62 214 2.0 8.0 0.00 0.00 0.00 69 1012.8
20260505185005 62 224 1.0 8.0 0.00 0.00 0.00 69 1012.8
20260505184503 62 221 1.0 4.0 0.00 0.00 0.00 68 1012.9
20260505184005 62 209 1.0 2.0 0.00 0.00 0.00 69 1012.8
20260505183503 62 207 1.0 3.0 0.00 0.00 0.00 68 1012.8
20260505183005 62 208 2.0 3.0 0.00 0.00 0.00 67 1012.6
20260505182503 62 206 2.0 6.0 0.00 0.00 0.00 67 1012.6
20260505182003 62 211 1.0 6.0 0.00 0.00 0.00 67 1012.6
20260505181505 62 228 1.0 4.0 0.00 0.00 0.00 66 1012.6
20260505181003 62 232 1.0 4.0 0.00 0.00 0.00 66 1012.7
20260505180503 62 260 1.0 4.0 0.00 0.00 0.00 66 1012.6
20260505180211 62 256 1.0 4.0 0.00 0.00 0.00 66 1012.7
20260505175505 63 242 1.0 4.0 0.00 0.00 0.00 66 1012.7
20260505175003 63 250 1.0 4.0 0.00 0.00 0.00 66 1012.7
20260505174505 63 267 1.0 4.0 0.00 0.00 0.00 65 1012.6
20260505174003 63 310 1.0 3.0 0.00 0.00 0.00 65 1012.6
20260505173505 63 309 1.0 3.0 0.00 0.00 0.00 65 1012.6
20260505173003 63 300 2.0 4.0 0.00 0.00 0.00 64 1012.7
20260505172504 63 299 2.0 5.0 0.00 0.00 0.00 64 1012.8
20260505172212 63 287 2.0 5.0 0.00 0.00 0.00 64 1012.8
20260505171503 64 271 1.0 8.0 0.00 0.00 0.00 63 1012.9
20260505171005 64 275 1.0 8.0 0.00 0.00 0.00 63 1012.8
20260505170503 64 282 2.0 4.0 0.00 0.00 0.00 63 1012.9
20260505170004 64 296 2.0 7.0 0.00 0.00 0.00 63 1012.9
20260505165712 64 304 2.0 7.0 0.00 0.00 0.00 63 1013.0
20260505165003 64 296 1.0 4.0 0.00 0.00 0.00 62 1012.9
20260505164505 64 279 2.0 4.0 0.00 0.00 0.00 62 1012.8
20260505164003 64 277 2.0 5.0 0.00 0.00 0.00 61 1012.9
20260505163503 65 284 2.0 5.0 0.00 0.00 0.00 61 1012.8
20260505163005 65 311 2.0 4.0 0.00 0.00 0.00 61 1012.9
20260505162503 65 229 2.0 8.0 0.00 0.00 0.00 60 1012.9
20260505162003 65 239 2.0 8.0 0.00 0.00 0.00 60 1012.9
20260505161505 65 295 2.0 10.0 0.00 0.00 0.00 59 1013.0
20260505161003 65 242 2.0 10.0 0.00 0.00 0.00 59 1012.9
20260505160712 65 226 2.0 7.0 0.00 0.00 0.00 59 1012.9
20260505153210 66 219 4.0 8.0 0.00 0.00 0.00 58 1013.0
20260505152505 66 211 5.0 10.0 0.00 0.00 0.00 57 1013.0
20260505152003 66 218 5.0 11.0 0.00 0.00 0.00 57 1013.0
20260505151505 66 226 5.0 11.0 0.00 0.00 0.00 56 1013.0
20260505151003 66 223 6.0 13.0 0.00 0.00 0.00 57 1013.0
20260505150505 66 225 6.0 13.0 0.00 0.00 0.00 56 1013.1
20260505130211 66 217 4.0 10.0 0.00 0.00 0.00 65 1013.5